Regional Weather Roundup
Issued by NWS Portland, ME

Current Version | Previous Version | Text Only | Print | Product List | Glossary On
Versions: 1 2 3 4 5 6 7 8 9 10 11 12 13 14 15 16 17 18 19 20 21 22 23 24 25 26 27 28 29 30 31 32 33 34 35 36 37 38 39 40 41 42 43 44 45 46 47 48 49 50
000 ASUS41 KGYX 190810 RWRGYX WEATHER ROUNDUP FOR MAINE AND NEW HAMPSHIRE NATIONAL WEATHER SERVICE GRAY ME 400 AM EDT THU OCT 19 2017 MEZ002-005-006-010-012-015-018-020-021-024-026-027-029-190900- MAINE CITY SKY/WX TMP DP RH WIND PRES REMARKS PORTLAND CLEAR 41 38 89 NW3 30.21F SANFORD CLEAR 34 33 96 CALM 30.22S BAR HARBOR CLEAR 40 40 100 CALM 30.22F WISCASSET CLEAR 40 38 93 CALM 30.22S ROCKLAND CLEAR 40 39 97 CALM 30.21S FRYEBURG PTCLDY 34 34 100 CALM 30.21S FOG LEWISTONAUBURN CLEAR 38 38 100 CALM 30.20F AUGUSTA CLEAR 45 43 93 SE5 30.20F WATERVILLE CLEAR 43 42 97 SW3 30.16F BANGOR CLEAR 46 41 82 S5 30.20F GREENVILLE N/A 49 35 58 SE3 30.15F MILLINOCKET CLEAR 33 33 100 CALM 30.19F HOULTON CLEAR 41 31 67 S6 30.16F PRESQUE ISLE CLEAR 31 29 92 VRB3 30.15F FRENCHVILLE CLEAR 41 29 62 S8 30.10F CARIBOU CLEAR 37 30 75 CALM 30.13F $$ NHZ002-005-008-009-011-012-014-190900- NEW HAMPSHIRE CITY SKY/WX TMP DP RH WIND PRES REMARKS PORTSMOUTH PTCLDY 44 44 98 CALM 30.20F ROCHESTER CLEAR 42 40 92 CALM 30.21F NASHUA CLEAR 41 39 93 CALM 30.24S MANCHESTER CLEAR 44 42 93 CALM 30.21F CONCORD CLEAR 37 34 89 CALM 30.23S LACONIA MOCLDY 41 41 100 CALM 30.22S FOG PLYMOUTH FAIR 32 32 99 CALM 30.23S BERLIN FOG 30 30 100 CALM 30.20F VSB 1/4 WHITEFIELD CLEAR 30 29 96 CALM 30.19F JAFFREY CLEAR 39 39 100 CALM 30.24S KEENE FOG 36 36 100 S8 30.24F VSB 1 LEBANON CLEAR 37 35 92 CALM 30.20F MT WASHINGTON CLEAR 41 27 56 SW37 N/A $$ VTZ005-007-008-190900- VERMONT CITY SKY/WX TMP DP RH WIND PRES REMARKS ST JOHNSBURY N/A 37 36 96 MISG 30.18F MONTPELIER CLEAR 41 40 96 CALM 30.20F BURLINGTON CLEAR 60 46 59 S16G26 30.12F $$ MAZ007-012-024-CTZ003-RIZ002-NYZ038-NYZ072-190900- SOUTHERN NEW ENGLAND AND NY CITY SKY/WX TMP DP RH WIND PRES REMARKS BOSTON CLEAR 53 48 83 SW6 30.23F WORCESTER CLEAR 51 45 79 W8 30.23F NANTUCKET CLEAR 57 57 100 SW8 30.27S PROVIDENCE CLEAR 48 47 96 CALM 30.26F HARTFORD PTCLDY 42 41 96 CALM 30.24S ALBANY CLEAR 46 43 89 CALM 30.21F NEW YORK CITY CLEAR 60 45 57 SW5 30.25S $$ ANZ081-ANZ082-ANZ150-NHZ014-MEZ023>029-190900- COASTAL MARINE OBSERVATIONS STATION/POSITION TIME TEMP WIND PRES WAVE AIR SEA DIR/SP/G HT/PER (UTC) (F) (DEG/KT/KT) (MB) (FT/S) MOUNT DESERT ROC 0800 57 190/ 14/ 15 1023.6F MATINICUS ROCK 0700 56 200/ 14/ 15 1023.0F ISLE OF SHOALS 0700 56 220/ 10/ 11 1023.0F JEFFREYS LEDGE 0736 59 N/A 2/11 CASHES LEDGE BUO 0650 56 55 1024.0 2/ 9 GEORGES BANK BUO 0650 58 60 1025.7 3/ 8 $$ .............KEY.............. WCI - WIND CHILL TC - TEMPERATURE IN CELSIUS VSB - VISIBILITY IN MILES HX - HEAT INDEX FAIR- INDICATES FEW OR NO CLOUDS BELOW 12,000 FT, WITH NO SIGNIFICANT WEATHER AND/OR OBSTRUCTIONS TO VISIBILITY.

USA.gov is the U.S. government's official web portal to all federal, state and local government web resources and services.